NY5V Weather Reports


Display with metric or nautical units.
time (UTC)temp
F
wind
direction
speed
MPH
gust
MPH
rain 1hr
in
rain 24hr
in
rain mn
in
humidity
%
barometer
mb
20260903230834 90 9 2.0 3.0 0.00 0.95 0.95 62 1012.3
20260903225832 91 38 2.0 3.0 0.00 0.95 0.95 61 1012.4
20260903224830 91 323 2.0 2.0 0.00 0.95 0.95 60 1012.4
20260903223827 90 56 1.0 1.0 0.00 0.95 0.95 61 1012.3
20260903222827 91 14 2.0 3.0 0.00 0.95 0.95 61 1012.8
20260903221827 91 19 2.0 3.0 0.00 0.95 0.95 62 1012.6
20260903220824 92 34 2.0 3.0 0.00 0.95 0.95 60 1012.6
20260903215822 91 53 1.0 1.0 0.00 0.95 0.95 61 1012.8
20260903214817 90 49 1.0 2.0 0.00 0.95 0.95 63 1013.1
20260903213813 90 26 1.0 1.0 0.00 0.95 0.95 65 1013.0
20260903212811 91 74 0.0 1.0 0.00 0.95 0.95 62 1012.9
20260903211806 91 70 0.0 0.0 0.00 0.95 0.95 63 1013.0
20260903210804 91 50 0.0 0.0 0.00 0.95 0.95 64 1013.2
20260903205759 91 33 1.0 1.0 0.00 0.95 0.95 61 1013.3
20260903204759 91 11 1.0 1.0 0.00 0.95 0.95 61 1013.5
20260903203757 90 46 1.0 2.0 0.00 0.95 0.95 61 1013.4
20260903202756 89 47 0.0 1.0 0.00 0.95 0.95 64 1013.3
20260903201752 89 9 2.0 2.0 0.00 0.95 0.95 64 1013.4
20260903200752 89 53 0.0 0.0 0.00 0.95 0.95 65 1013.7
20260903195749 89 51 0.0 1.0 0.00 0.95 0.95 67 1014.0
20260903194744 89 52 0.0 1.0 0.00 0.95 0.95 66 1014.1
20260903193742 89 45 0.0 1.0 0.00 0.95 0.95 68 1014.2
20260903192739 89 52 2.0 3.0 0.00 0.95 0.95 67 1014.3
20260903191737 87 34 1.0 2.0 0.00 0.95 0.95 69 1014.6
20260903190732 88 50 1.0 1.0 0.00 0.95 0.95 69 1014.6
20260903185727 88 289 2.0 2.0 0.00 0.95 0.95 70 1014.7
20260903184724 88 42 0.0 1.0 0.00 0.95 0.95 69 1014.9
20260903183720 87 326 2.0 3.0 0.00 0.95 0.95 71 1015.0
20260903182719 87 45 0.0 1.0 0.00 0.95 0.95 71 1015.3
20260903181719 87 357 4.0 6.0 0.00 0.95 0.95 72 1015.4
20260903180716 86 230 2.0 4.0 0.00 0.95 0.95 73 1015.6
20260903175714 85 11 3.0 3.0 0.00 0.95 0.95 76 1015.8
20260903174714 84 43 1.0 2.0 0.00 0.95 0.95 78 1015.9
20260903173709 86 44 1.0 3.0 0.00 0.95 0.95 73 1015.8
20260903172706 85 30 1.0 1.0 0.00 0.95 0.95 76 1016.1
20260903171701 87 42 0.0 1.0 0.00 0.95 0.95 72 1015.9
20260903170656 86 326 5.0 7.0 0.00 0.95 0.95 75 1016.0
20260903165655 84 306 3.0 3.0 0.00 0.95 0.95 77 1016.2
20260903164651 84 44 1.0 1.0 0.00 0.95 0.95 78 1016.2
20260903163647 84 38 3.0 4.0 0.00 0.95 0.95 78 1016.3
20260903162645 84 42 2.0 3.0 0.00 0.95 0.95 77 1016.2
20260903161642 84 25 2.0 2.0 0.00 0.95 0.95 79 1016.2
20260903160638 83 38 2.0 2.0 0.00 0.95 0.95 80 1016.2
20260903155637 81 47 4.0 7.0 0.00 0.95 0.95 84 1016.1
20260903154634 82 41 2.0 2.0 0.00 0.95 0.95 83 1016.2
20260903153632 83 42 1.0 2.0 0.00 0.95 0.95 84 1015.9
20260903152629 82 11 2.0 3.0 0.00 0.95 0.95 85 1015.7
20260903151630 81 44 1.0 1.0 0.00 0.95 0.95 85 1016.0
20260903150625 80 43 2.0 3.0 0.00 0.95 0.95 88 1015.7
20260903145620 79 9 3.0 3.0 0.00 0.95 0.95 90 1015.8
20260903144619 79 25 4.0 6.0 0.00 0.95 0.95 92 1015.8
20260903143618 78 39 1.0 2.0 0.00 0.95 0.95 94 1015.8
20260903142614 76 44 1.0 2.0 0.00 0.95 0.95 97 1015.9
20260903141612 76 47 2.0 4.0 0.00 0.95 0.95 97 1015.9
20260903140609 76 27 2.0 3.0 0.00 0.95 0.95 97 1016.0
20260903135606 75 7 1.0 1.0 0.00 0.95 0.95 98 1016.2
20260903134605 75 43 0.0 1.0 0.00 0.95 0.95 99 1016.2
20260903133604 75 25 1.0 1.0 0.00 0.95 0.95 99 1015.8
20260903132601 75 340 2.0 4.0 0.00 0.95 0.95 99 1015.7
20260903131602 74 32 2.0 3.0 0.00 0.95 0.95 99 1015.8
20260903130601 74 37 1.0 1.0 0.00 0.95 0.95 99 1016.1
20260903125601 73 46 0.0 0.0 0.00 0.95 0.95 99 1016.1
20260903124556 73 42 0.0 0.0 0.00 0.95 0.95 99 1015.9
20260903123555 73 15 2.0 3.0 0.00 0.95 0.95 99 1015.8
20260903122554 73 48 0.0 0.0 0.00 0.95 0.95 99 1015.7
20260903121554 73 43 0.0 0.0 0.00 0.95 0.95 99 1015.7
20260903120555 73 45 0.0 0.0 0.00 0.95 0.95 99 1015.8
20260903115554 72 44 0.0 0.0 0.00 0.95 0.95 99 1015.8
20260903114549 73 47 0.0 0.0 0.00 0.95 0.95 99 1015.6
20260903113547 73 45 0.0 0.0 0.00 0.95 0.95 99 1015.6
20260903112544 73 29 1.0 2.0 0.00 0.95 0.95 99 1015.4
20260903111543 73 22 2.0 2.0 0.00 0.95 0.95 99 1015.6
20260903110541 73 40 0.0 1.0 0.00 0.95 0.95 99 1015.7
20260903105537 73 44 0.0 0.0 0.00 0.95 0.95 99 1015.1
20260903104531 73 45 2.0 2.0 0.00 0.95 0.95 99 1014.7
20260903103529 73 33 1.0 1.0 0.07 0.95 0.95 99 1014.6
20260903102526 73 17 2.0 2.0 0.00 0.94 0.94 99 1015.0
20260903101526 73 37 1.0 1.0 0.00 0.94 0.94 99 1014.9
20260903100522 74 21 2.0 4.0 0.00 0.94 0.94 99 1014.8
20260903095519 74 4 2.0 2.0 0.00 0.94 0.94 99 1014.7
20260903094519 74 27 2.0 2.0 0.00 0.94 0.94 99 1014.9
20260903093515 74 39 1.0 1.0 0.17 0.94 0.94 99 1015.1
20260903092510 74 35 2.0 2.0 0.24 0.92 0.92 99 1015.1
20260903091508 74 31 1.0 2.0 0.35 0.88 0.88 99 1015.0
20260903090505 73 46 2.0 3.0 0.42 0.82 0.82 99 1015.1
20260903085502 73 44 0.0 0.0 0.38 0.76 0.76 99 1015.1
20260903084501 73 27 3.0 3.0 0.12 0.70 0.70 99 1015.1
20260903083458 73 10 1.0 2.0 0.12 0.68 0.68 99 1014.8
20260903082458 73 49 1.0 1.0 0.00 0.66 0.66 99 1014.8
20260903081455 73 34 3.0 4.0 0.00 0.66 0.66 99 1014.8
20260903080453 73 2 1.0 2.0 0.00 0.66 0.66 99 1014.9
20260903075449 73 42 2.0 2.0 0.00 0.66 0.66 99 1014.9
20260903074450 74 97 0.0 1.0 0.05 0.66 0.66 99 1014.9
20260903073446 74 43 0.0 1.0 0.07 0.65 0.65 99 1015.0
20260903072443 74 29 1.0 2.0 0.24 0.64 0.64 99 1015.1
20260903071442 74 54 1.0 2.0 0.42 0.61 0.61 99 1015.1
20260903070437 75 41 1.0 2.0 0.35 0.54 0.54 99 1015.1
20260903065432 75 54 0.0 0.0 0.38 0.48 0.48 99 1015.1
20260903064432 75 43 1.0 1.0 1.32 0.42 0.42 99 1015.2
20260903063429 76 50 0.0 0.0 0.54 0.21 0.21 99 1015.5
20260903062425 75 46 3.0 4.0 0.12 0.12 0.12 99 1015.2
20260903061420 75 12 3.0 4.0 0.24 0.10 0.10 99 1014.9
20260903060416 75 6 0.0 1.0 0.24 0.07 0.07 99 1015.0
20260903055412 75 26 2.0 2.0 0.17 0.03 0.03 99 1015.0
20260903054407 75 346 2.0 2.0 0.00 0.00 0.00 99 1014.9
20260903053404 75 1 0.0 2.0 0.00 0.00 0.00 99 1014.6
20260903052402 76 84 0.0 1.0 0.00 0.00 0.00 99 1014.6
20260903051358 75 35 2.0 3.0 0.00 0.00 0.00 99 1014.5
20260903050358 75 24 2.0 2.0 0.00 0.00 0.00 99 1014.5
20260903045354 75 54 0.0 0.0 0.00 0.26 0.26 99 1014.4
20260903044351 75 40 0.0 0.0 0.00 0.26 0.26 99 1014.5
20260903043348 76 56 0.0 0.0 0.07 0.26 0.26 99 1014.5
20260903042348 76 11 1.0 1.0 0.00 0.25 0.25 99 1014.7
20260903041346 76 49 1.0 1.0 0.00 0.25 0.25 99 1014.5
20260903040347 75 327 2.0 4.0 0.00 0.25 0.25 99 1014.6
20260903035344 75 47 0.0 0.0 0.00 0.25 0.25 99 1014.2
20260903034340 75 62 0.0 1.0 0.00 0.25 0.25 99 1014.5
20260903033336 75 31 0.0 0.0 0.00 0.25 0.25 99 1014.3
20260903032332 75 118 2.0 3.0 0.00 0.25 0.25 99 1014.5
20260903031332 75 50 0.0 0.0 0.05 0.25 0.25 99 1014.5
20260903030330 75 45 0.0 0.0 0.12 0.24 0.24 99 1014.4
20260903025326 75 51 0.0 1.0 0.26 0.22 0.22 99 1014.3
20260903024326 75 40 1.0 3.0 0.24 0.18 0.18 99 1014.2
20260903023323 75 125 3.0 4.0 0.31 0.14 0.14 98 1014.1
20260903022323 75 51 0.0 0.0 0.12 0.10 0.10 98 1014.0
20260903021318 75 329 4.0 9.0 0.19 0.08 0.08 97 1013.9
20260903020318 76 357 2.0 4.0 0.17 0.05 0.05 97 1013.9
20260903015314 76 51 1.0 2.0 0.00 0.02 0.02 95 1013.7
20260903014309 76 62 0.0 0.0 0.07 0.02 0.02 95 1013.7
20260903013309 77 102 1.0 3.0 0.05 0.01 0.01 94 1013.6
20260903012309 78 335 3.0 3.0 0.00 0.00 0.00 89 1013.6
20260903011308 78 64 0.0 1.0 0.00 0.00 0.00 88 1013.2
20260903010305 79 112 2.0 3.0 0.00 0.00 0.00 86 1013.5
20260903005306 80 52 0.0 1.0 0.00 0.00 0.00 83 1013.4
20260903004301 80 237 2.0 3.0 0.00 0.00 0.00 81 1013.3
20260903003258 80 3 3.0 4.0 0.00 0.00 0.00 81 1013.2
20260903002257 81 47 2.0 4.0 0.00 0.00 0.00 79 1013.4
20260903001254 81 223 2.0 3.0 0.00 0.00 0.00 79 1013.3
20260903000248 82 49 1.0 2.0 0.00 0.00 0.00 78 1013.2
20260902235248 82 31 2.0 2.0 0.00 0.00 0.00 77 1013.4
20260902234247 82 63 1.0 2.0 0.00 0.00 0.00 77 1013.3
20260902233247 83 148 1.0 2.0 0.00 0.00 0.00 76 1013.4
20260902232246 83 61 2.0 3.0 0.00 0.00 0.00 74 1013.4
20260902231241 83 61 1.0 2.0 0.00 0.00 0.00 75 1013.4